When you browse on this site, cookies collect data to enhance your experience and personalize the content and advertising you see.
Visit our Privacy Policy to learn more. By continuing to use the site, you agree to this use of cookies and data.
  • In Hungary
  • List of Countries
  • For 7 days
  • Water Temperature
  • Weather Map
  • News
  • Weather Widgets
  • user-avatar
    Login

    Hourly Weather Cielemec

    Today, 17 September, Tuesday

    Time Temperature Precipitation Wind Pressure Humidity
    00:00 +8°C° 0 mm 4 mps 744 mmHg 74%
    01:00 +8°C° 0 mm 4 mps 744 mmHg 76%
    02:00 +7°C° 0 mm 4 mps 744 mmHg 79%
    03:00 +7°C° 0 mm 4 mps 744 mmHg 81%
    04:00 +7°C° 0 mm 4 mps 744 mmHg 84%
    05:00 +8°C° 0 mm 5 mps 744 mmHg 81%
    06:00 +8°C° 0 mm 5 mps 744 mmHg 78%
    07:00 +9°C° 0 mm 5 mps 744 mmHg 75%
    08:00 +10°C° 0 mm 6 mps 743 mmHg 69%
    09:00 +13°C° 0 mm 6 mps 743 mmHg 63%
    10:00 +14°C° 0 mm 7 mps 743 mmHg 57%
    11:00 +13°C° 0.1 mm 8 mps 742 mmHg 56%
    12:00 +13°C° 0.1 mm 8 mps 741 mmHg 54%
    13:00 +13°C° 0.1 mm 9 mps 741 mmHg 53%
    14:00 +13°C° 0.1 mm 8 mps 740 mmHg 56%
    15:00 +12°C° 0.1 mm 8 mps 740 mmHg 59%
    16:00 +12°C° 0.1 mm 7 mps 739 mmHg 62%
    17:00 +10°C° 0.7 mm 7 mps 739 mmHg 68%
    18:00 +9°C° 0.7 mm 7 mps 739 mmHg 75%
    19:00 +6°C° 0.7 mm 8 mps 738 mmHg 82%
    20:00 +6°C° 0.5 mm 7 mps 738 mmHg 82%
    21:00 +6°C° 0.5 mm 7 mps 738 mmHg 83%
    22:00 +7°C° 0.5 mm 6 mps 738 mmHg 83%
    23:00 +5°C° 0.1 mm 7 mps 738 mmHg 84%

    Tomorrow, 18 September, Wednesday

    Time Temperature Precipitation Wind Pressure Humidity
    00:00 +5°C° 0.1 mm 7 mps 738 mmHg 84%
    01:00 +4°C° 0.1 mm 8 mps 738 mmHg 84%
    02:00 +4°C° 0 mm 8 mps 738 mmHg 84%
    03:00 +4°C° 0 mm 8 mps 738 mmHg 84%
    04:00 +4°C° 0 mm 8 mps 738 mmHg 83%
    05:00 +5°C° 0 mm 9 mps 739 mmHg 81%
    06:00 +5°C° 0 mm 9 mps 739 mmHg 79%
    07:00 +6°C° 0 mm 10 mps 739 mmHg 78%
    08:00 +6°C° 0.2 mm 10 mps 740 mmHg 77%
    09:00 +7°C° 0.2 mm 10 mps 741 mmHg 76%
    10:00 +7°C° 0.2 mm 10 mps 742 mmHg 76%
    11:00 +8°C° 0 mm 10 mps 742 mmHg 73%
    12:00 +10°C° 0 mm 9 mps 743 mmHg 69%
    13:00 +10°C° 0 mm 9 mps 743 mmHg 66%
    14:00 +10°C° 0.1 mm 8 mps 744 mmHg 65%
    15:00 +11°C° 0.1 mm 8 mps 744 mmHg 64%
    16:00 +11°C° 0.1 mm 7 mps 745 mmHg 62%
    17:00 +10°C° 0 mm 6 mps 745 mmHg 66%
    18:00 +9°C° 0 mm 5 mps 746 mmHg 70%
    19:00 +7°C° 0 mm 4 mps 746 mmHg 74%
    20:00 +7°C° 0 mm 4 mps 746 mmHg 77%
    21:00 +6°C° 0 mm 4 mps 747 mmHg 80%
    22:00 +7°C° 0 mm 3 mps 747 mmHg 83%
    23:00 +5°C° 0 mm 3 mps 747 mmHg 85%

    Day after tomorrow, 19 September, Thursday

    Time Temperature Precipitation Wind Pressure Humidity
    00:00 +5°C° 0 mm 3 mps 748 mmHg 87%
    01:00 +5°C° 0 mm 3 mps 748 mmHg 89%
    02:00 +5°C° 0 mm 4 mps 748 mmHg 91%
    03:00 +5°C° 0 mm 4 mps 748 mmHg 93%
    04:00 +5°C° 0 mm 4 mps 748 mmHg 94%
    05:00 +5°C° 0 mm 4 mps 748 mmHg 92%
    06:00 +6°C° 0 mm 5 mps 748 mmHg 89%
    07:00 +6°C° 0 mm 5 mps 748 mmHg 86%
    08:00 +8°C° 0.1 mm 5 mps 749 mmHg 78%
    09:00 +10°C° 0.1 mm 5 mps 749 mmHg 71%
    10:00 +12°C° 0.1 mm 5 mps 749 mmHg 64%
    11:00 +13°C° 0.1 mm 5 mps 749 mmHg 59%
    12:00 +14°C° 0.1 mm 6 mps 749 mmHg 54%
    13:00 +14°C° 0.1 mm 6 mps 749 mmHg 50%
    14:00 +14°C° 0.2 mm 5 mps 749 mmHg 51%
    15:00 +13°C° 0.2 mm 5 mps 749 mmHg 53%
    16:00 +13°C° 0.2 mm 5 mps 749 mmHg 55%
    17:00 +10°C° 0.1 mm 5 mps 749 mmHg 61%
    18:00 +10°C° 0.1 mm 4 mps 750 mmHg 67%
    19:00 +7°C° 0.1 mm 4 mps 750 mmHg 73%
    20:00 +7°C° 0 mm 4 mps 751 mmHg 77%
    21:00 +6°C° 0 mm 4 mps 751 mmHg 81%
    22:00 +5°C° 0 mm 4 mps 751 mmHg 85%
    23:00 +5°C° 0 mm 4 mps 751 mmHg 86%

    20 September, Friday

    Time Temperature Precipitation Wind Pressure Humidity
    00:00 +4°C° 0 mm 4 mps 751 mmHg 87%
    01:00 +4°C° 0 mm 4 mps 752 mmHg 88%
    02:00 +4°C° 0 mm 4 mps 752 mmHg 88%
    03:00 +4°C° 0 mm 4 mps 752 mmHg 87%
    04:00 +3°C° 0 mm 4 mps 752 mmHg 87%
    05:00 +4°C° 0 mm 4 mps 752 mmHg 83%
    06:00 +5°C° 0 mm 5 mps 752 mmHg 79%
    07:00 +6°C° 0 mm 5 mps 752 mmHg 76%
    08:00 +7°C° 0.1 mm 5 mps 752 mmHg 70%
    09:00 +8°C° 0.1 mm 6 mps 752 mmHg 65%
    10:00 +10°C° 0.1 mm 6 mps 752 mmHg 60%
    11:00 +10°C° 0.1 mm 6 mps 752 mmHg 56%
    12:00 +11°C° 0.1 mm 6 mps 752 mmHg 51%
    13:00 +12°C° 0.1 mm 7 mps 752 mmHg 47%
    14:00 +13°C° 0 mm 6 mps 752 mmHg 48%
    15:00 +13°C° 0 mm 6 mps 752 mmHg 49%
    16:00 +11°C° 0 mm 6 mps 752 mmHg 50%
    17:00 +10°C° 0 mm 5 mps 753 mmHg 57%
    18:00 +8°C° 0 mm 4 mps 753 mmHg 65%
    19:00 +8°C° 0 mm 3 mps 754 mmHg 72%
    20:00 +7°C° 0 mm 3 mps 754 mmHg 76%
    21:00 +5°C° 0 mm 3 mps 754 mmHg 79%
    22:00 +6°C° 0 mm 2 mps 754 mmHg 82%
    23:00 +5°C° 0 mm 2 mps 755 mmHg 83%

    21 September, Saturday

    Time Temperature Precipitation Wind Pressure Humidity
    00:00 +5°C° 0 mm 2 mps 755 mmHg 84%
    01:00 +5°C° 0 mm 1 mps 755 mmHg 85%
    02:00 +5°C° 0 mm 1 mps 755 mmHg 86%
    03:00 +5°C° 0 mm 1 mps 755 mmHg 87%
    04:00 +5°C° 0 mm 1 mps 755 mmHg 88%
    05:00 +5°C° 0 mm 1 mps 755 mmHg 83%
    06:00 +6°C° 0 mm 1 mps 756 mmHg 79%
    07:00 +7°C° 0 mm 1 mps 756 mmHg 74%
    08:00 +9°C° 0 mm 1 mps 756 mmHg 66%
    09:00 +10°C° 0 mm 2 mps 756 mmHg 59%
    10:00 +13°C° 0 mm 2 mps 756 mmHg 51%
    11:00 +14°C° 0 mm 2 mps 756 mmHg 49%
    12:00 +15°C° 0 mm 2 mps 756 mmHg 46%
    13:00 +16°C° 0 mm 3 mps 755 mmHg 43%
    14:00 +16°C° 0 mm 3 mps 755 mmHg 46%
    15:00 +16°C° 0 mm 2 mps 755 mmHg 49%
    16:00 +16°C° 0 mm 2 mps 755 mmHg 52%
    17:00 +14°C° 0 mm 2 mps 755 mmHg 58%
    18:00 +13°C° 0 mm 2 mps 755 mmHg 63%
    19:00 +11°C° 0 mm 1 mps 755 mmHg 69%
    20:00 +10°C° 0 mm 2 mps 755 mmHg 71%
    21:00 +10°C° 0 mm 2 mps 755 mmHg 74%
    22:00 +9°C° 0 mm 2 mps 755 mmHg 77%
    23:00 +9°C° 0 mm 2 mps 755 mmHg 79%

    22 September, Sunday

    Time Temperature Precipitation Wind Pressure Humidity
    00:00 +9°C° 0 mm 2 mps 755 mmHg 80%
    01:00 +9°C° 0 mm 3 mps 755 mmHg 82%
    02:00 +8°C° 0 mm 2 mps 755 mmHg 84%
    03:00 +8°C° 0 mm 2 mps 755 mmHg 85%
    04:00 +8°C° 0 mm 2 mps 755 mmHg 87%
    05:00 +9°C° 0 mm 2 mps 755 mmHg 83%
    06:00 +9°C° 0 mm 2 mps 755 mmHg 80%
    07:00 +10°C° 0 mm 2 mps 755 mmHg 77%
    08:00 +13°C° 0 mm 2 mps 755 mmHg 69%
    09:00 +15°C° 0 mm 2 mps 756 mmHg 62%
    10:00 +17°C° 0 mm 2 mps 756 mmHg 54%
    11:00 +18°C° 0 mm 2 mps 755 mmHg 50%
    12:00 +19°C° 0 mm 2 mps 755 mmHg 47%
    13:00 +20°C° 0 mm 2 mps 755 mmHg 43%
    14:00 +20°C° 0 mm 2 mps 755 mmHg 45%
    15:00 +20°C° 0 mm 2 mps 754 mmHg 48%
    16:00 +21°C° 0 mm 1 mps 754 mmHg 50%
    17:00 +18°C° 0 mm 2 mps 754 mmHg 54%
    18:00 +16°C° 0 mm 2 mps 754 mmHg 57%
    19:00 +14°C° 0 mm 2 mps 754 mmHg 61%
    20:00 +14°C° 0 mm 2 mps 754 mmHg 63%
    21:00 +13°C° 0 mm 2 mps 754 mmHg 64%
    22:00 +12°C° 0 mm 3 mps 754 mmHg 66%
    23:00 +11°C° 0 mm 3 mps 754 mmHg 67%
    Show more